Regional Weather Roundup
Issued by NWS

Home | Current Version | Previous Version | Graphics & Text | Print | Product List | Glossary On
Versions: 1 2 3 4 5 6 7 8 9 10 11 12 13 14 15 16 17 18 19 20 21 22 23 24 25 26 27 28 29 30 31 32 33 34 35 36 37 38 39 40 41 42 43 44 45 46 47 48 49 50
000
ASUS44 KMEG 212000
RWRTN
TENNESSEE HOURLY STATE WEATHER ROUNDUP
NATIONAL WEATHER SERVICE MEMPHIS TN
300 PM CDT MON JUL 21 2014

TNZ002-004-019-021-049-052-054-088>092-212100-
WEST TENNESSEE

CITY           SKY/WX    TMP DP  RH WIND       PRES   REMARKS
MEMPHIS INTL   MOSUNNY   85  65  51 NE3       30.06F
NWS MEMPHIS      N/A     84 N/A N/A MISG        N/A
JACKSON        PTSUNNY   85  67  54 NE3       30.05F
DYERSBURG      CLOUDY    86  63  45 CALM      30.07F
PARIS          SUNNY     84  66  54 N5        30.06F
LEXINGTON      MOSUNNY   86  64  48 N3        30.04F
$$

TNZ008-025-027-028-033-062-065-066-212100-
NORTH MIDDLE TENNESSEE

CITY           SKY/WX    TMP DP  RH WIND       PRES   REMARKS
NASHVILLE      PTSUNNY   90  66  45 E7        30.04F HX  92
CLARKSVILLE    SUNNY     91  63  39 NE8       30.03F HX  92
COOKEVILLE     MOSUNNY   86  72  62 SE5       30.07S HX  92
CROSSVILLE     PTSUNNY   79  67  66 VRB5      30.12F
$$

TNZ061-075-076-078-094-096-097-212100-
SOUTH MIDDLE TENNESSEE

CITY           SKY/WX    TMP DP  RH WIND       PRES   REMARKS
WINCHESTER     MOSUNNY   79  72  78 CALM      30.07F
SHELBYVILLE    PTSUNNY   77  73  88 SE6       30.08F
$$

TNZ017-018-042-046-047-212100-
NORTHEAST TENNESSEE

CITY           SKY/WX    TMP DP  RH WIND       PRES   REMARKS
TRI CITIES     PTSUNNY   87  65  47 SE5       30.11F
ELIZABETHTON   PTCLDY    79  66  65 E6        30.13S
$$

TNZ012-013-036-069-073-074-212100-
CENTRAL EAST TENNESSEE

CITY           SKY/WX    TMP DP  RH WIND       PRES   REMARKS
KNOXVILLE      PTSUNNY   86  70  58 VRB5      30.06F HX  90
OAK RIDGE      MOSUNNY   86  69  56 CALM      30.08F HX  90
GATLINBURG     PTCLDY    86  66  51 CALM      30.06F
$$

TNZ083-085-099-212100-
SOUTHEAST TENNESSEE

CITY           SKY/WX    TMP DP  RH WIND       PRES   REMARKS
CHATTANOOGA    PTSUNNY   83  70  64 VRB5      30.06F
$$

SKY/WX REPORTED AS FAIR MEANS FEW OR NO CLOUDS BELOW
12 THOUSAND FEET.



USA.gov is the U.S. government's official web portal to all federal, state and local government web resources and services.